Location: Braunsdorf
(50.7357°N, 11.9136°E)
Time: 09:46:55
(UTC+00:00)

Lacrosse 5 - Pass Details

Date: 17 February 2020
Orbit: 715 x 724 km, 57.0° (Epoch: 21 March)

Event Time Altitude Azimuth Distance (km) Brightness Sun altitude
Exits shadow 02:59:22 40° 77° (ENE) 1,051 3.0 -32.3°
Drops below altitude 10° 03:02:51 10° 101° (E) 2,208 5.0 -31.8°
Sets 03:05:17 0° 105° (ESE) 3,129 5.9 -31.4°
